Weather in Loukhi

Russia / Republic of Karelia     66°04′28″N   33°02′38″E
temp.,
°C
wind,
m/s
gust,
m/s
humid.,
%
clouds,
%
prec.,
mm/h
press.,
hPa
HPBL,
m
27 february, sat
sat2700:00−6nnw239572 0.0 100325
03:00−6nw269672 0.0 1007113
06:00−4n4119333 0.0 1008318
09:00−5nnw3109019 0.0 1012267
12:00−2nw49871 0.0 1013512
15:00−1nw37891 0.0 1014370
18:00−5wnw38930 0.0 1013171
21:00−7wnw23920 0.0 101362
28 february, sun
sun2800:00−7wsw239069 0.0 101129
03:00−6sw348884 0.0 101087
06:00−6ssw259297 0.0 1009127
09:00−6sw269698 0.0 1009177
12:00−3w369476 0.0 1008286
15:00−1w379483 0.0 1010359
18:00−3w369561 0.0 1010144
21:00−3wsw369342 0.0 1010116
1 march, mon
mon100:00−2wsw499294 0.0 1008227
03:00−1wsw5129496 0.0 1006308
06:00+1wsw71595100 0.0 1002662
09:00+2w51492100 0.0 1001828
12:00+2w5129197 0.0 1000880
15:00+2w5138249 0.0 1000871
18:00−1w412820 0.0 999389
21:00−3w4128913 0.0 998376
2 march, tue
tue200:00−2w4138480 0.0 997541
03:00−3w5138873 0.0 997650
06:00−2nw7168547 0.0 999843
09:00−5nw6157940 0.0 1003911
12:00−3nw6147756 0.0 1006838
15:00−2wnw5128077 0.0 1008847
18:00−3wnw5148458 0.0 1008709
21:00−3nw6148358 0.0 1009707
3 march, wed
wed300:00−5nw3119124 0.0 1011303
03:00−7nw399315 0.0 1013230
06:00−8wnw39900 0.0 1013202
09:00−8wnw48890 0.0 1013206
12:00−4w378956 0.0 1011298
15:00−3wsw4108635 0.0 1008524
18:00−3sw4128894 0.0 1002548
21:000wsw5129797 1.9 994823